[TLELIST] Archives

 

[list_settings.list_name] Current TLEs

October 5th 2013 PST

HST 1 20580U 90037B 13277.16885579 .00001497 00000-0 93692-4 0 3452 2 20580 028.4702 278.2100 0003387 073.6713 004.6578 15.03972662 86115 ISS (ZARYA) 1 25544U 98067A 13278.37605324 -.00020343 00000-0 -35642-3 0 7435 2 25544 051.6497 282.2927 0002678 352.4971 225.6211 15.49442120851791 CXO 1 25867U 99040B 13279.00023157 .00000197 00000-0 00000+0 0 9581 2 25867 076.0391 333.2293 8451869 276.5773 000.2880 00.37806758 10956 ____________________________________________________________________ These 2-Line ...Continue Reading

[list_settings.list_name] Current TLEs

October 4th 2013 PST

HST 1 20580U 90037B 13277.16885579 .00001497 00000-0 93692-4 0 3452 2 20580 028.4702 278.2100 0003387 073.6713 004.6578 15.03972662 86115 ISS (ZARYA) 1 25544U 98067A 13277.27318287 .00003060 00000-0 62775-4 0 7345 2 25544 051.6502 287.7511 0002324 347.8082 194.4844 15.49421216851626 CXO 1 25867U 99040B 13279.00023157 .00000197 00000-0 00000+0 0 9581 2 25867 076.0391 333.2293 8451869 276.5773 000.2880 00.37806758 10956 ____________________________________________________________________ These 2-Line ...Continue Reading

[list_settings.list_name] Current TLEs

October 3rd 2013 PST

HST 1 20580U 90037B 13275.45619910 .00002396 00000-0 15723-3 0 3442 2 20580 028.4703 289.4430 0003420 056.6110 090.5967 15.03971566 85865 ISS (ZARYA) 1 25544U 98067A 13276.49470451 -.00004137 00000-0 -66005-4 0 7281 2 25544 051.6492 291.6049 0002331 000.8269 156.3126 15.49401745851507 CXO 1 25867U 99040B 13276.35654312 .00000313 00000-0 00000+0 0 9578 2 25867 076.0234 333.4097 8451308 276.5844 000.4569 00.37803015 10941 ____________________________________________________________________ These 2-Line ...Continue Reading

[list_settings.list_name] Current TLEs

October 2nd 2013 PST

HST 1 20580U 90037B 13274.17862810 .00001787 00000-0 11423-3 0 3434 2 20580 028.4704 297.8223 0003452 042.7374 013.7253 15.03961743 85661 ISS (ZARYA) 1 25544U 98067A 13275.46229197 .00006958 00000-0 12724-3 0 7195 2 25544 051.6487 296.7183 0003439 102.6618 050.5466 15.50570719851349 CXO 1 25867U 99040B 13276.35654312 .00000313 00000-0 00000+0 0 9578 2 25867 076.0234 333.4097 8451308 276.5844 000.4569 00.37803015 10941 ____________________________________________________________________ These 2-Line ...Continue Reading

[list_settings.list_name] Current TLEs

October 1st 2013 PST

HST 1 20580U 90037B 13274.17862810 .00001787 00000-0 11423-3 0 3434 2 20580 028.4704 297.8223 0003452 042.7374 013.7253 15.03961743 85661 ISS (ZARYA) 1 25544U 98067A 13274.44115741 .00007031 00000-0 12857-3 0 7124 2 25544 051.6485 301.7771 0003363 095.6021 113.8368 15.50554530851181 CXO 1 25867U 99040B 13276.35654312 .00000313 00000-0 00000+0 0 9578 2 25867 076.0234 333.4097 8451308 276.5844 000.4569 00.37803015 10941 ____________________________________________________________________ These 2-Line ...Continue Reading

[list_settings.list_name] Current TLEs

September 30th 2013 PST

HST 1 20580U 90037B 13272.53752049 .00001674 00000-0 10627-3 0 3423 2 20580 028.4704 308.5855 0003401 027.0022 126.5639 15.03957993 85429 ISS (ZARYA) 1 25544U 98067A 13273.39676382 .00005759 00000-0 10681-3 0 7072 2 25544 051.6489 306.9561 0003269 095.3603 040.4428 15.50533924851026 CXO 1 25867U 99040B 13273.71162209 .00000372 00000-0 00000+0 0 9568 2 25867 076.0094 333.5504 8451454 276.6239 000.3749 00.37798635 10939 ____________________________________________________________________ These 2-Line ...Continue Reading

[list_settings.list_name] Current TLEs

September 29th 2013 PST

HST 1 20580U 90037B 13271.53530064 .00001769 00000-0 11298-3 0 3412 2 20580 028.4705 315.1584 0003336 017.6117 098.9963 15.03954629 85278 ISS (ZARYA) 1 25544U 98067A 13272.49832432 .00005051 00000-0 94719-4 0 6992 2 25544 051.6494 311.4116 0003277 094.4181 063.0664 15.50520245850887 CXO 1 25867U 99040B 13273.71162209 .00000372 00000-0 00000+0 0 9568 2 25867 076.0094 333.5504 8451454 276.6239 000.3749 00.37798635 10939 ____________________________________________________________________ These 2-Line ...Continue Reading

[list_settings.list_name] Current TLEs

September 28th 2013 PST

HST 1 20580U 90037B 13270.47697433 .00001680 00000-0 10671-3 0 3403 2 20580 028.4706 322.0994 0003304 007.0132 128.2690 15.03952119 85115 ISS (ZARYA) 1 25544U 98067A 13271.20004951 .00005408 00000-0 10089-3 0 6912 2 25544 051.6496 317.8465 0003026 086.9398 018.9895 15.50507164850682 CXO 1 25867U 99040B 13273.71162209 .00000372 00000-0 00000+0 0 9568 2 25867 076.0094 333.5504 8451454 276.6239 000.3749 00.37798635 10939 ____________________________________________________________________ These 2-Line ...Continue Reading

[list_settings.list_name] Current TLEs

September 27th 2013 PST

HST 1 20580U 90037B 13268.61679302 .00001520 00000-0 95413-4 0 3390 2 20580 028.4707 334.2991 0003192 347.3838 136.6081 15.03947539 84831 ISS (ZARYA) 1 25544U 98067A 13270.23384176 .00004352 00000-0 82768-4 0 6858 2 25544 051.6482 322.6336 0003064 090.4526 018.7336 15.50494010850530 CXO 1 25867U 99040B 13271.06693731 .00000324 00000-0 00000+0 0 9559 2 25867 075.9907 333.6833 8454505 276.6684 000.3032 00.37799533 10922 ____________________________________________________________________ These 2-Line ...Continue Reading

[list_settings.list_name] Current TLEs

September 26th 2013 PST

HST 1 20580U 90037B 13268.61679302 .00001520 00000-0 95413-4 0 3390 2 20580 028.4707 334.2991 0003192 347.3838 136.6081 15.03947539 84831 ISS (ZARYA) 1 25544U 98067A 13269.51926882 .00024260 00000-0 42435-3 0 6792 2 25544 051.6467 326.1740 0003397 087.7556 350.2165 15.50488396850424 CXO 1 25867U 99040B 13271.06693731 .00000324 00000-0 00000+0 0 9559 2 25867 075.9907 333.6833 8454505 276.6684 000.3032 00.37799533 10922 ____________________________________________________________________ These 2-Line ...Continue Reading
  • This mailing list is a public mailing list - anyone may join or leave, at any time.
  • This mailing list is announce-only.

International Space Station (ISS) / Hubble Space Telescope (HST) / Chandra X-Ray Observatory Orbital Data via EMAIL

Privacy Policy:

Private list